SCP
-0 -0 -0 -0 -0 -0 -0 -0 -0 -0 -0 -0 -0 -0 -0 -0 -0 0 0 0 0 0 -0 -0 0 0 0 0 0 0 0 -0 0 0 0 0 0 0 0 0 0 -0 0 0 0 0 -0
-0 -0 -0 -0 -0 -0 -0 -0 -0 -0 -0 -0 -0 0 0 -0 -0 -0 0 0 0 0 -0 -0 0 0 0 0 0 0 0 0 0 0 0 0 0 0 0 0 0 -0 -0 0 0 0 0
-0 -0 -0 -0 -0 -0 -0 -0 -0 -0 0 0 0 0 0 0 0 -0 -0 -0 0 -0 -0 0 -0 0 0 0 0 0 0 0 0 0 0 0 0 0 0 0 0 -0 0 0 0 0 0
-0 -0 -0 -0 -0 -0 -0 0 0 0 0 0 0 0 0 0 0 0 0 0 -0 -0 0 -0 -0 0 0 0 0 0 0 0 0 0 0 0 0 0 0 0 0 0 0 0 0 0 0
-0 -0 -0 -0 -0 0 0 0 0 0 0 0 0 0 0 0 0 0 0 0 0 0 0 -0 0 0 0 0 0 0 0 0 0 0 0 0 0 0 0 0 0 0 0 0 0 0 0
-0 -0 0 0 0 0 0 0 0 0 0 0 0 0 0 0 0 0 0 0 -0 0 0 -0 0 0 0 0 0 0 0 0 0 0 0 0 0 0 0 0 0 0 0 0 0 0 0
0 0 0 0 0 0 0 0 0 0 0 0 0 0 0 0 0 0 0 -0 0 0 0 0 0 0 0 0 0 0 0 0 0 0 0 0 0 0 -0 0 0 0 0 0 0 0 0
0 0 0 0 0 0 0 0 0 0 0 0 0 0 0 0 0 -0 -0 -0 -0 -0 0 0 -0 -0 0 0 0 0 0 0 0 0 0 0 0 0 0 0 0 0 0 0 0 0 0
0 0 0 0 0 0 0 0 0 0 0 0 0 0 0 0 0 0 0 -0 0 -0 0 0 0 0 0 0 0 0 0 0 0 0 0 0 0 0 0 0 0 0 0 0 0 0 0
0 0 0 0 0 0 0 0 0 0 0 0 0 0 0 0 0 0 0 0 0 0 0 0 0 0 0 -0 0 0 0 0 0 0 0 0 0 0 0 0 0 0 0 0 0 0 0
0 0 0 0 0 0 0 0 0 0 0 0 0 0 0 0 0 0 0 0 0 0 0 0 0 0 0 0 0 0 0 0 0 0 0 0 0 0 0 0 0 0 0 0 -0 0 0
0 0 0 0 0 0 0 0 0 0 0 -0 -0 -0 -0 0 0 0 0 0 0 0 0 0 0 0 -0 0 0 0 0 0 0 0 0 0 0 0 0 0 0 0 0 0 0 0 0
0 0 0 0 0 0 0 0 0 0 -0 0 0 0 0 0 0 0 0 0 0 0 0 0 0 -0 -0 0 0 0 -0 0 0 0 0 0 0 0 0 0 0 0 0 0 0 0 0
0 0 0 0 0 0 0 0 0 0 0 0 0 0 0 0 0 0 0 0 0 0 0 0 0 -0 -0 -0 0 0 -0 0 0 0 0 0 0 0 0 0 0 0 0 0 0 0 0
0 0 0 0 0 0 0 -0 0 -0 0 0 0 0 0 0 0 0 0 0 0 0 0 0 0 0 0 -0 -0 -0 -0 -0 0 0 0 0 0 0 0 0 0 0 0 0 0 0 0
0 0 0 0 0 0 0 0 -0 -0 0 0 0 0 0 -0 0 0 0 0 0 0 0 0 0 0 0 -0 -0 -0 -0 -0 -0 0 0 0 0 0 0 0 0 0 0 0 0 0 0
0 0 0 0 0 0 -0 -0 0 0 0 0 0 0 0 0 0 0 0 0 0 0 0 0 0 0 0 0 0 -0 0 -0 -0 -0 -0 0 -0 0 0 0 0 0 0 0 0 0 0
0 0 0 0 0 0 -0 -0 0 0 0 0 0 0 0 0 0 0 0 0 0 0 0 0 0 0 0 0 0 0 -0 -0 -0 -0 -0 -0 -0 -0 0 0 0 0 0 0 0 0 0
0 0 0 0 0 0 -0 0 0 0 0 0 0 0 0 0 0 0 0 0 0 0 0 0 0 0 0 0 0 0 0 0 -0 -0 -0 -0 0 -0 0 0 0 0 0 0 0 0 0
0 0 0 0 0 0 -0 0 0 0 0 0 0 0 0 0 0 0 0 0 0 0 0 0 0 0 0 0 0 0 0 -0 -0 -0 -0 -0 -0 0 -0 0 0 0 0 0 0 0 0
0 0 0 0 0 0 0 0 0 0 0 0 0 0 0 0 0 0 0 0 0 0 0 0 0 0 0 0 0 0 0 0 0 0 -0 -0 -0 0 0 0 0 0 0 0 0 0 0
0 0 0 0 0 0 0 0 0 0 0 0 0 0 0 0 0 0 0 0 0 0 0 0 0 0 0 0 0 0 0 0 0 0 -0 -0 -0 -0 -0 0 0 0 0 0 0 0 0
0 0 0 0 0 0 0 0 0 0 0 0 0 0 0 0 0 0 0 0 0 0 0 0 0 0 0 -0 0 0 0 0 0 0 0 -0 -0 0 0 0 0 0 0 0 0 0 0
0 0 0 0 0 0 0 0 0 0 0 0 0 0 0 0 0 0 0 0 0 0 0 0 -0 0 0 -0 -0 0 0 0 0 0 0 -0 0 0 0 0 0 0 0 0 0 0 0
0 0 0 0 0 0 0 0 0 0 0 0 0 0 0 0 0 0 0 0 0 0 0 0 0 0 -0 0 -0 -0 -0 0 0 0 0 0 0 0 0 0 0 0 0 0 0 0 0
0 0 0 0 0 0 0 0 0 0 0 0 0 0 0 0 0 0 0 0 0 0 0 0 0 0 -0 0 -0 -0 -0 -0 0 0 0 0 0 0 0 0 1 0 0 0 0 0 0
0 0 0 0 0 0 0 0 0 0 0 0 0 0 0 0 0 0 0 0 0 0 0 0 0 -0 -0 0 0 0 0 0 0 0 0 0 0 0 0 0 0 0 0 0 0 0 0
0 0 0 0 0 0 0 0 0 0 0 0 0 0 0 0 0 0 0 0 0 0 0 0 0 0 0 -0 -0 0 0 0 0 0 0 0 0 0 0 0 0 0 0 0 0 0 0
0 0 0 0 0 0 0 0 0 0 0 0 0 0 0 0 0 0 0 0 0 0 0 0 0 0 0 0 0 0 0 0 0 0 0 0 0 0 0 0 0 0 0 0 0 0 0
Wind_Speed_500mb
39 40 41 42 43 44 46 47 48 51 52 53 54 54 53 51 49 48 46 40 45 48 55 54 47 33 25 17 30 11 12 12 64 68 67 66 65 31 14 18 8 24 18 22 36 26 26
42 44 45 44 45 46 48 49 52 55 57 58 58 58 57 55 52 50 45 39 47 51 52 46 33 26 17 10 6 16 35 9 46 73 74 68 48 50 29 10 31 12 32 40 40 25 15
43 43 43 44 46 47 48 49 52 54 55 57 59 60 58 56 54 50 44 38 47 55 34 34 30 21 25 46 10 8 22 22 27 56 73 78 30 47 16 3 44 37 16 16 19 23 12
43 43 44 45 46 47 48 50 52 54 57 63 67 69 70 66 57 52 42 41 46 54 27 34 43 19 21 12 18 29 28 23 33 54 63 65 46 58 10 6 6 6 9 4 13 11 18
41 41 42 43 45 47 50 53 55 59 64 68 70 71 69 72 63 56 42 42 46 28 24 39 25 16 23 6 11 1 10 33 33 48 54 31 60 13 11 4 8 4 8 14 6 22 9
41 42 43 45 46 48 52 55 60 64 67 70 71 71 70 69 63 48 41 45 34 16 16 25 14 15 8 12 39 31 5 29 39 36 36 21 21 8 2 9 21 11 9 9 13 18 19
41 42 42 42 45 49 53 57 61 65 69 70 72 74 74 65 57 32 41 32 32 7 55 19 41 24 43 41 32 4 9 41 33 31 15 21 9 36 44 13 9 4 7 10 8 15 30
39 39 40 42 46 51 55 58 59 62 67 75 78 79 76 65 46 26 23 32 29 27 28 42 27 26 29 21 12 11 7 26 21 12 12 10 29 23 16 16 20 14 15 15 10 9 11
40 40 40 44 48 51 54 58 64 69 74 78 80 76 71 63 28 30 16 30 36 35 6 24 13 27 35 13 5 32 25 14 10 15 25 15 13 29 22 20 27 22 27 21 7 9 15
39 41 44 47 50 53 59 65 67 69 74 78 78 76 68 52 15 31 20 32 33 13 9 11 15 23 33 3 5 32 40 9 6 26 14 18 36 20 27 31 24 24 21 30 17 11 12
40 41 44 48 52 57 62 67 68 69 73 77 78 71 64 26 19 34 40 42 17 5 6 10 15 17 18 23 24 41 29 9 7 11 12 26 21 23 27 40 23 22 12 21 11 13 11
41 43 45 49 55 61 65 68 71 71 73 77 76 58 46 17 25 38 48 42 6 9 6 12 13 14 15 20 13 40 29 23 15 8 9 15 40 18 40 21 28 8 10 9 3 9 19
43 46 48 52 57 63 67 68 70 73 76 79 72 33 33 18 41 35 43 16 9 6 13 8 9 11 8 14 16 20 19 30 12 14 16 18 17 14 15 18 23 24 10 9 6 11 20
44 47 50 54 58 62 66 69 71 76 78 77 64 10 20 31 29 30 41 10 7 7 5 5 7 2 8 12 9 16 7 8 24 11 6 8 13 9 5 27 21 24 26 13 12 7 19
46 48 51 54 58 63 66 69 71 77 77 74 64 11 7 22 31 29 23 10 1 11 14 11 9 6 9 7 7 9 9 6 9 15 9 9 13 20 28 26 17 15 30 21 3 2 3
48 50 53 56 58 61 65 69 71 75 72 69 61 11 19 46 35 17 10 3 3 19 20 10 5 5 5 8 8 7 5 6 6 9 3 2 12 5 16 19 24 33 13 9 1 31 20
49 50 53 55 58 61 64 65 67 67 69 65 40 11 36 46 5 13 7 6 8 27 29 12 10 5 4 3 1 3 3 6 4 7 2 3 6 13 12 10 7 3 23 7 11 11 24
49 50 52 55 56 58 60 60 61 61 64 62 27 7 41 44 18 9 5 13 16 19 22 11 6 5 4 3 3 4 8 8 14 3 3 2 7 10 17 27 38 19 15 22 16 18 8
48 50 51 54 55 57 58 56 55 51 52 54 32 12 24 37 8 7 14 10 10 14 10 11 9 15 6 5 6 3 1 5 16 5 7 2 1 7 18 5 10 12 15 20 15 6 19
52 53 56 57 57 58 56 52 49 44 39 39 14 8 12 25 20 6 11 9 11 18 9 12 9 18 17 6 4 3 6 7 4 10 10 10 5 10 11 6 16 23 44 44 8 10 31
58 59 60 59 57 56 51 46 42 38 30 22 10 3 6 7 4 5 6 8 14 9 11 7 6 3 9 9 10 9 8 5 6 19 7 5 5 14 17 21 33 41 51 54 30 29 17
62 65 63 59 55 52 46 40 36 34 24 11 8 6 3 7 12 16 7 5 15 11 6 8 8 19 14 13 16 20 15 5 10 5 6 3 3 5 11 21 47 42 46 38 44 37 33
66 65 61 56 52 44 39 35 31 25 18 6 4 5 4 4 5 6 5 6 11 27 16 14 13 16 18 27 36 34 42 32 19 13 9 8 4 4 11 15 33 19 13 25 24 27 8
67 63 56 50 45 39 35 33 26 16 13 10 8 11 3 4 4 5 9 25 24 25 16 30 37 7 18 53 56 44 49 41 35 22 26 13 8 5 7 16 10 18 25 16 33 40 43
62 56 49 45 43 40 37 33 25 14 12 13 13 9 5 4 11 16 19 14 25 25 11 23 12 39 41 29 7 10 8 5 16 25 26 13 9 6 3 10 15 5 14 20 13 26 41
55 50 45 45 45 43 40 37 26 15 8 12 14 13 14 4 7 16 11 17 7 8 10 11 36 22 22 6 4 5 6 2 7 13 24 14 10 3 2 10 10 10 31 53 25 16 40
49 46 46 46 48 47 44 34 18 6 4 7 9 7 10 5 10 14 9 6 8 7 7 15 29 15 24 5 5 5 5 5 2 19 15 10 7 9 15 10 5 20 52 50 11 3 33
45 47 49 51 53 49 37 21 9 3 2 4 1 3 11 5 21 14 25 16 13 9 3 13 14 9 9 12 5 6 6 8 6 11 8 7 4 1 6 8 7 46 22 14 6 17 28
45 48 51 55 53 34 23 17 9 2 5 8 5 5 4 16 13 21 20 17 20 11 15 3 7 6 6 6 5 6 5 9 19 9 14 8 6 3 3 6 17 39 35 34 18 18 31
Wind_Direction_500mb
31 30 28 26 25 24 21 18 15 13 9 4 360 356 353 350 344 342 342 341 340 335 326 313 308 299 303 266 255 239 209 150 179 183 187 175 176 179 183 177 201 232 252 260 258 251 220
31 29 26 23 21 20 19 18 17 14 10 5 359 355 351 347 341 338 339 336 334 332 331 324 304 292 269 252 267 226 211 172 188 184 184 183 190 181 195 203 202 204 234 253 266 221 180
29 27 23 21 20 19 19 18 15 11 8 5 4 2 357 349 339 335 335 333 329 326 327 346 329 285 256 252 204 157 194 224 209 197 189 194 184 183 185 155 249 261 297 313 261 223 132
27 24 22 22 21 19 16 12 8 4 2 360 358 357 356 354 343 332 332 328 328 325 321 326 334 294 258 287 246 242 231 204 207 204 207 200 195 196 192 257 354 165 134 259 271 232 164
26 25 24 23 21 16 12 8 5 3 2 360 357 352 351 353 345 332 334 332 326 330 334 330 333 316 271 347 41 334 268 223 200 208 201 213 196 199 225 134 8 316 192 197 240 189 142
26 24 22 19 15 12 9 6 4 3 0 356 353 349 346 351 344 337 338 341 338 326 351 343 331 317 315 307 315 311 232 198 182 188 192 170 184 164 148 148 214 194 196 215 190 204 182
25 23 19 14 11 10 7 4 4 2 358 354 352 348 344 350 348 349 349 13 11 348 323 265 304 274 311 329 305 256 51 180 175 153 166 182 157 205 208 182 177 207 225 228 227 207 189
21 17 13 12 11 8 4 1 360 360 358 354 354 349 344 349 350 356 10 44 20 337 305 305 301 291 340 311 318 57 10 169 177 178 155 122 218 208 177 173 209 248 267 268 321 226 129
14 11 11 11 7 2 358 355 356 358 357 353 353 348 341 347 351 359 13 12 348 337 302 300 332 355 7 341 349 7 3 285 173 200 192 185 231 184 206 185 198 213 220 237 162 202 220
7 6 7 5 1 357 355 355 354 354 353 351 352 347 338 349 6 0 9 347 335 323 51 279 356 13 2 333 22 6 5 231 233 202 184 218 241 196 203 216 193 228 190 231 223 192 210
1 0 0 358 355 353 353 352 351 352 350 348 352 343 339 6 37 12 349 340 310 177 345 42 360 3 13 29 346 357 3 41 284 264 172 213 189 207 212 220 197 243 168 222 197 201 174
353 353 354 352 349 347 347 349 349 350 349 349 353 343 352 18 16 352 349 339 157 46 249 22 19 333 31 358 25 349 7 31 46 2 282 247 241 218 224 221 220 256 214 235 155 201 242
347 346 347 345 343 342 344 346 348 347 349 349 356 8 32 31 350 336 347 349 45 126 345 26 325 346 75 344 21 12 55 40 22 13 19 334 274 257 205 202 222 208 122 245 258 202 230
341 339 341 340 340 342 343 344 347 345 349 349 355 0 35 22 348 334 344 38 106 2 1 303 318 296 78 24 41 351 60 41 22 13 63 30 294 193 268 206 203 208 202 193 194 187 237
339 338 338 339 339 340 340 342 344 342 349 348 349 310 339 356 345 330 1 46 190 357 318 323 344 42 351 354 83 44 72 87 39 23 53 5 266 324 319 317 218 210 212 199 145 201 340
337 337 337 338 339 339 339 341 344 342 350 348 347 358 356 323 308 308 64 257 308 37 350 329 50 1 28 359 62 62 30 77 87 47 144 122 294 291 322 326 266 220 171 175 211 229 240
337 337 337 338 339 338 338 341 346 345 349 351 357 8 348 355 48 68 105 282 316 12 3 12 11 351 42 1 268 156 154 99 116 21 72 138 193 294 346 232 354 337 220 238 168 169 225
337 337 338 337 337 339 338 343 345 347 349 356 3 15 348 4 50 25 34 319 316 4 2 351 3 34 322 316 270 198 173 193 89 158 343 103 231 280 255 274 297 256 278 205 204 219 246
342 340 338 336 337 337 336 342 343 348 352 352 343 321 1 12 62 345 316 308 321 338 329 16 346 20 348 287 285 224 8 199 137 139 160 138 93 325 329 20 45 26 328 354 324 109 209
342 340 337 335 336 334 335 339 339 346 353 352 357 357 15 56 71 37 341 294 334 340 58 17 2 27 324 282 216 288 248 239 192 172 92 154 218 242 208 318 327 296 303 302 268 283 228
339 337 335 335 334 331 333 337 336 341 353 354 12 50 28 337 351 307 238 274 324 0 356 1 48 247 306 290 310 217 231 299 296 127 95 83 250 243 258 282 289 280 277 280 274 252 241
338 337 334 333 330 331 334 336 338 338 357 4 14 19 24 289 314 329 338 305 310 347 292 261 199 294 282 231 229 277 286 177 224 22 100 6 298 325 261 293 281 268 266 266 256 258 269
338 335 332 333 333 338 337 337 338 334 350 12 27 296 280 289 292 315 326 308 301 308 292 275 308 299 274 253 262 255 267 248 237 163 156 135 137 261 276 298 314 258 261 332 70 38 315
336 336 336 338 338 341 339 336 332 325 312 305 297 294 214 282 241 244 273 295 293 310 297 285 294 259 280 306 298 275 255 246 234 211 168 144 131 251 275 318 220 137 42 334 62 43 23
339 339 342 343 341 343 340 332 334 316 281 284 281 269 220 260 254 283 282 294 303 302 276 288 304 317 313 302 321 352 327 277 237 211 197 148 144 208 98 288 286 323 41 342 345 34 17
341 342 346 344 342 341 334 334 330 309 277 264 271 266 251 259 243 276 309 304 304 317 316 286 332 343 359 28 354 251 258 24 277 145 160 132 190 125 84 256 211 335 333 314 268 39 3
344 346 346 344 341 337 335 334 338 344 282 248 266 275 247 251 298 306 262 280 268 273 284 291 337 336 9 332 308 318 260 272 163 162 166 178 147 211 231 258 223 341 323 313 155 91 351
347 346 346 345 341 340 339 348 8 34 175 177 121 315 244 258 298 287 307 268 265 231 258 319 334 0 335 0 341 315 325 334 340 41 76 88 158 273 277 239 198 14 345 33 8 354 358
346 347 349 347 343 352 3 10 13 88 141 137 126 147 221 250 282 321 327 341 348 276 250 324 301 340 342 324 355 315 333 338 343 38 12 65 351 301 312 296 321 337 319 301 315 352 348
Wind_Speed_850mb
39 40 41 42 43 44 46 47 48 51 52 53 54 54 53 51 49 48 46 40 45 48 55 54 47 33 25 17 30 11 12 12 64 68 67 66 65 31 14 18 8 24 18 22 36 26 26
42 44 45 44 45 46 48 49 52 55 57 58 58 58 57 55 52 50 45 39 47 51 52 46 33 26 17 10 6 16 35 9 46 73 74 68 48 50 29 10 31 12 32 40 40 25 15
43 43 43 44 46 47 48 49 52 54 55 57 59 60 58 56 54 50 44 38 47 55 34 34 30 21 25 46 10 8 22 22 27 56 73 78 30 47 16 3 44 37 16 16 19 23 12
43 43 44 45 46 47 48 50 52 54 57 63 67 69 70 66 57 52 42 41 46 54 27 34 43 19 21 12 18 29 28 23 33 54 63 65 46 58 10 6 6 6 9 4 13 11 18
41 41 42 43 45 47 50 53 55 59 64 68 70 71 69 72 63 56 42 42 46 28 24 39 25 16 23 6 11 1 10 33 33 48 54 31 60 13 11 4 8 4 8 14 6 22 9
41 42 43 45 46 48 52 55 60 64 67 70 71 71 70 69 63 48 41 45 34 16 16 25 14 15 8 12 39 31 5 29 39 36 36 21 21 8 2 9 21 11 9 9 13 18 19
41 42 42 42 45 49 53 57 61 65 69 70 72 74 74 65 57 32 41 32 32 7 55 19 41 24 43 41 32 4 9 41 33 31 15 21 9 36 44 13 9 4 7 10 8 15 30
39 39 40 42 46 51 55 58 59 62 67 75 78 79 76 65 46 26 23 32 29 27 28 42 27 26 29 21 12 11 7 26 21 12 12 10 29 23 16 16 20 14 15 15 10 9 11
40 40 40 44 48 51 54 58 64 69 74 78 80 76 71 63 28 30 16 30 36 35 6 24 13 27 35 13 5 32 25 14 10 15 25 15 13 29 22 20 27 22 27 21 7 9 15
39 41 44 47 50 53 59 65 67 69 74 78 78 76 68 52 15 31 20 32 33 13 9 11 15 23 33 3 5 32 40 9 6 26 14 18 36 20 27 31 24 24 21 30 17 11 12
40 41 44 48 52 57 62 67 68 69 73 77 78 71 64 26 19 34 40 42 17 5 6 10 15 17 18 23 24 41 29 9 7 11 12 26 21 23 27 40 23 22 12 21 11 13 11
41 43 45 49 55 61 65 68 71 71 73 77 76 58 46 17 25 38 48 42 6 9 6 12 13 14 15 20 13 40 29 23 15 8 9 15 40 18 40 21 28 8 10 9 3 9 19
43 46 48 52 57 63 67 68 70 73 76 79 72 33 33 18 41 35 43 16 9 6 13 8 9 11 8 14 16 20 19 30 12 14 16 18 17 14 15 18 23 24 10 9 6 11 20
44 47 50 54 58 62 66 69 71 76 78 77 64 10 20 31 29 30 41 10 7 7 5 5 7 2 8 12 9 16 7 8 24 11 6 8 13 9 5 27 21 24 26 13 12 7 19
46 48 51 54 58 63 66 69 71 77 77 74 64 11 7 22 31 29 23 10 1 11 14 11 9 6 9 7 7 9 9 6 9 15 9 9 13 20 28 26 17 15 30 21 3 2 3
48 50 53 56 58 61 65 69 71 75 72 69 61 11 19 46 35 17 10 3 3 19 20 10 5 5 5 8 8 7 5 6 6 9 3 2 12 5 16 19 24 33 13 9 1 31 20
49 50 53 55 58 61 64 65 67 67 69 65 40 11 36 46 5 13 7 6 8 27 29 12 10 5 4 3 1 3 3 6 4 7 2 3 6 13 12 10 7 3 23 7 11 11 24
49 50 52 55 56 58 60 60 61 61 64 62 27 7 41 44 18 9 5 13 16 19 22 11 6 5 4 3 3 4 8 8 14 3 3 2 7 10 17 27 38 19 15 22 16 18 8
48 50 51 54 55 57 58 56 55 51 52 54 32 12 24 37 8 7 14 10 10 14 10 11 9 15 6 5 6 3 1 5 16 5 7 2 1 7 18 5 10 12 15 20 15 6 19
52 53 56 57 57 58 56 52 49 44 39 39 14 8 12 25 20 6 11 9 11 18 9 12 9 18 17 6 4 3 6 7 4 10 10 10 5 10 11 6 16 23 44 44 8 10 31
58 59 60 59 57 56 51 46 42 38 30 22 10 3 6 7 4 5 6 8 14 9 11 7 6 3 9 9 10 9 8 5 6 19 7 5 5 14 17 21 33 41 51 54 30 29 17
62 65 63 59 55 52 46 40 36 34 24 11 8 6 3 7 12 16 7 5 15 11 6 8 8 19 14 13 16 20 15 5 10 5 6 3 3 5 11 21 47 42 46 38 44 37 33
66 65 61 56 52 44 39 35 31 25 18 6 4 5 4 4 5 6 5 6 11 27 16 14 13 16 18 27 36 34 42 32 19 13 9 8 4 4 11 15 33 19 13 25 24 27 8
67 63 56 50 45 39 35 33 26 16 13 10 8 11 3 4 4 5 9 25 24 25 16 30 37 7 18 53 56 44 49 41 35 22 26 13 8 5 7 16 10 18 25 16 33 40 43
62 56 49 45 43 40 37 33 25 14 12 13 13 9 5 4 11 16 19 14 25 25 11 23 12 39 41 29 7 10 8 5 16 25 26 13 9 6 3 10 15 5 14 20 13 26 41
55 50 45 45 45 43 40 37 26 15 8 12 14 13 14 4 7 16 11 17 7 8 10 11 36 22 22 6 4 5 6 2 7 13 24 14 10 3 2 10 10 10 31 53 25 16 40
49 46 46 46 48 47 44 34 18 6 4 7 9 7 10 5 10 14 9 6 8 7 7 15 29 15 24 5 5 5 5 5 2 19 15 10 7 9 15 10 5 20 52 50 11 3 33
45 47 49 51 53 49 37 21 9 3 2 4 1 3 11 5 21 14 25 16 13 9 3 13 14 9 9 12 5 6 6 8 6 11 8 7 4 1 6 8 7 46 22 14 6 17 28
45 48 51 55 53 34 23 17 9 2 5 8 5 5 4 16 13 21 20 17 20 11 15 3 7 6 6 6 5 6 5 9 19 9 14 8 6 3 3 6 17 39 35 34 18 18 31
Wind_Direction_850mb
31 30 28 26 25 24 21 18 15 13 9 4 360 356 353 350 344 342 342 341 340 335 326 313 308 299 303 266 255 239 209 150 179 183 187 175 176 179 183 177 201 232 252 260 258 251 220
31 29 26 23 21 20 19 18 17 14 10 5 359 355 351 347 341 338 339 336 334 332 331 324 304 292 269 252 267 226 211 172 188 184 184 183 190 181 195 203 202 204 234 253 266 221 180
29 27 23 21 20 19 19 18 15 11 8 5 4 2 357 349 339 335 335 333 329 326 327 346 329 285 256 252 204 157 194 224 209 197 189 194 184 183 185 155 249 261 297 313 261 223 132
27 24 22 22 21 19 16 12 8 4 2 360 358 357 356 354 343 332 332 328 328 325 321 326 334 294 258 287 246 242 231 204 207 204 207 200 195 196 192 257 354 165 134 259 271 232 164
26 25 24 23 21 16 12 8 5 3 2 360 357 352 351 353 345 332 334 332 326 330 334 330 333 316 271 347 41 334 268 223 200 208 201 213 196 199 225 134 8 316 192 197 240 189 142
26 24 22 19 15 12 9 6 4 3 0 356 353 349 346 351 344 337 338 341 338 326 351 343 331 317 315 307 315 311 232 198 182 188 192 170 184 164 148 148 214 194 196 215 190 204 182
25 23 19 14 11 10 7 4 4 2 358 354 352 348 344 350 348 349 349 13 11 348 323 265 304 274 311 329 305 256 51 180 175 153 166 182 157 205 208 182 177 207 225 228 227 207 189
21 17 13 12 11 8 4 1 360 360 358 354 354 349 344 349 350 356 10 44 20 337 305 305 301 291 340 311 318 57 10 169 177 178 155 122 218 208 177 173 209 248 267 268 321 226 129
14 11 11 11 7 2 358 355 356 358 357 353 353 348 341 347 351 359 13 12 348 337 302 300 332 355 7 341 349 7 3 285 173 200 192 185 231 184 206 185 198 213 220 237 162 202 220
7 6 7 5 1 357 355 355 354 354 353 351 352 347 338 349 6 0 9 347 335 323 51 279 356 13 2 333 22 6 5 231 233 202 184 218 241 196 203 216 193 228 190 231 223 192 210
1 0 0 358 355 353 353 352 351 352 350 348 352 343 339 6 37 12 349 340 310 177 345 42 360 3 13 29 346 357 3 41 284 264 172 213 189 207 212 220 197 243 168 222 197 201 174
353 353 354 352 349 347 347 349 349 350 349 349 353 343 352 18 16 352 349 339 157 46 249 22 19 333 31 358 25 349 7 31 46 2 282 247 241 218 224 221 220 256 214 235 155 201 242
347 346 347 345 343 342 344 346 348 347 349 349 356 8 32 31 350 336 347 349 45 126 345 26 325 346 75 344 21 12 55 40 22 13 19 334 274 257 205 202 222 208 122 245 258 202 230
341 339 341 340 340 342 343 344 347 345 349 349 355 0 35 22 348 334 344 38 106 2 1 303 318 296 78 24 41 351 60 41 22 13 63 30 294 193 268 206 203 208 202 193 194 187 237
339 338 338 339 339 340 340 342 344 342 349 348 349 310 339 356 345 330 1 46 190 357 318 323 344 42 351 354 83 44 72 87 39 23 53 5 266 324 319 317 218 210 212 199 145 201 340
337 337 337 338 339 339 339 341 344 342 350 348 347 358 356 323 308 308 64 257 308 37 350 329 50 1 28 359 62 62 30 77 87 47 144 122 294 291 322 326 266 220 171 175 211 229 240
337 337 337 338 339 338 338 341 346 345 349 351 357 8 348 355 48 68 105 282 316 12 3 12 11 351 42 1 268 156 154 99 116 21 72 138 193 294 346 232 354 337 220 238 168 169 225
337 337 338 337 337 339 338 343 345 347 349 356 3 15 348 4 50 25 34 319 316 4 2 351 3 34 322 316 270 198 173 193 89 158 343 103 231 280 255 274 297 256 278 205 204 219 246
342 340 338 336 337 337 336 342 343 348 352 352 343 321 1 12 62 345 316 308 321 338 329 16 346 20 348 287 285 224 8 199 137 139 160 138 93 325 329 20 45 26 328 354 324 109 209
342 340 337 335 336 334 335 339 339 346 353 352 357 357 15 56 71 37 341 294 334 340 58 17 2 27 324 282 216 288 248 239 192 172 92 154 218 242 208 318 327 296 303 302 268 283 228
339 337 335 335 334 331 333 337 336 341 353 354 12 50 28 337 351 307 238 274 324 0 356 1 48 247 306 290 310 217 231 299 296 127 95 83 250 243 258 282 289 280 277 280 274 252 241
338 337 334 333 330 331 334 336 338 338 357 4 14 19 24 289 314 329 338 305 310 347 292 261 199 294 282 231 229 277 286 177 224 22 100 6 298 325 261 293 281 268 266 266 256 258 269
338 335 332 333 333 338 337 337 338 334 350 12 27 296 280 289 292 315 326 308 301 308 292 275 308 299 274 253 262 255 267 248 237 163 156 135 137 261 276 298 314 258 261 332 70 38 315
336 336 336 338 338 341 339 336 332 325 312 305 297 294 214 282 241 244 273 295 293 310 297 285 294 259 280 306 298 275 255 246 234 211 168 144 131 251 275 318 220 137 42 334 62 43 23
339 339 342 343 341 343 340 332 334 316 281 284 281 269 220 260 254 283 282 294 303 302 276 288 304 317 313 302 321 352 327 277 237 211 197 148 144 208 98 288 286 323 41 342 345 34 17
341 342 346 344 342 341 334 334 330 309 277 264 271 266 251 259 243 276 309 304 304 317 316 286 332 343 359 28 354 251 258 24 277 145 160 132 190 125 84 256 211 335 333 314 268 39 3
344 346 346 344 341 337 335 334 338 344 282 248 266 275 247 251 298 306 262 280 268 273 284 291 337 336 9 332 308 318 260 272 163 162 166 178 147 211 231 258 223 341 323 313 155 91 351
347 346 346 345 341 340 339 348 8 34 175 177 121 315 244 258 298 287 307 268 265 231 258 319 334 0 335 0 341 315 325 334 340 41 76 88 158 273 277 239 198 14 345 33 8 354 358
346 347 349 347 343 352 3 10 13 88 141 137 126 147 221 250 282 321 327 341 348 276 250 324 301 340 342 324 355 315 333 338 343 38 12 65 351 301 312 296 321 337 319 301 315 352 348